| time (UTC) | temp F | wind direction | speed knots | gust knots | rain 1hr in | rain 24hr in | rain mn in | humidity % | barometer mb |
| 20260507070004 | 55 | 217 | 6.1 | 9.6 | 0.00 | 0.81 | 0.00 | 81 | 1008.3 |
| 20260507065403 | 54 | 203 | 5.2 | 9.6 | 0.00 | 0.88 | 0.00 | 81 | 1008.3 |
| 20260507064503 | 54 | 148 | 4.3 | 10.4 | 0.00 | 0.92 | 0.00 | 82 | 1008.1 |
| 20260507063818 | 55 | 153 | 3.5 | 10.4 | 0.00 | 0.96 | 0.00 | 83 | 1008.1 |
| 20260507062703 | 54 | 155 | 4.3 | 9.6 | 0.00 | 1.02 | 0.00 | 82 | 1008.1 |
| 20260507061803 | 54 | 157 | 3.5 | 6.1 | 0.00 | 1.08 | 0.00 | 84 | 1008.0 |
| 20260507060903 | 53 | 146 | 3.5 | 7.0 | 0.00 | 1.16 | 0.00 | 85 | 1008.0 |
| 20260507060004 | 53 | 149 | 4.3 | 7.0 | 0.00 | 1.18 | 0.00 | 85 | 1008.1 |
| 20260507055403 | 53 | 151 | 2.6 | 6.1 | 0.00 | 1.18 | 0.00 | 85 | 1008.0 |
| 20260507054503 | 53 | 182 | 1.7 | 6.1 | 0.00 | 1.18 | 0.00 | 86 | 1008.0 |
| 20260507053603 | 52 | 186 | 1.7 | 6.1 | 0.00 | 1.18 | 0.00 | 87 | 1008.0 |
| 20260507052703 | 51 | 123 | 1.7 | 3.5 | 0.00 | 1.18 | 0.00 | 88 | 1007.8 |
| 20260507051803 | 51 | 97 | 1.7 | 4.3 | 0.00 | 1.18 | 0.00 | 88 | 1007.5 |
| 20260507050903 | 50 | 145 | 3.5 | 7.8 | 0.00 | 1.18 | 0.00 | 88 | 1007.5 |
| 20260507050217 | 50 | 143 | 3.5 | 7.8 | 0.00 | 1.18 | 0.00 | 88 | 1007.4 |
| 20260507045618 | 50 | 133 | 2.6 | 5.2 | 0.00 | 1.18 | 0.00 | 88 | 1007.3 |
| 20260507044503 | 50 | 170 | 0.9 | 3.5 | 0.00 | 1.18 | 0.00 | 88 | 1007.5 |
| 20260507043603 | 50 | 154 | 0.9 | 3.5 | 0.00 | 1.18 | 0.00 | 88 | 1007.3 |
| 20260507042916 | 50 | 144 | 1.7 | 5.2 | 0.00 | 1.18 | 0.00 | 88 | 1007.4 |
| 20260507041803 | 50 | 135 | 4.3 | 7.0 | 0.00 | 1.18 | 0.00 | 88 | 1007.1 |
| 20260507040903 | 50 | 139 | 2.6 | 5.2 | 0.00 | 1.18 | 0.00 | 87 | 1007.3 |
| 20260507040003 | 51 | 136 | 2.6 | 7.0 | 0.00 | 1.18 | 0.00 | 87 | 1007.3 |
| 20260507035403 | 51 | 140 | 2.6 | 5.2 | 0.00 | 1.18 | 0.00 | 87 | 1007.2 |
| 20260507034503 | 51 | 149 | 2.6 | 6.1 | 0.00 | 1.18 | 0.00 | 87 | 1007.3 |
| 20260507033816 | 51 | 157 | 2.6 | 7.8 | 0.00 | 1.18 | 0.00 | 87 | 1007.4 |
| 20260507032703 | 51 | 147 | 1.7 | 5.2 | 0.00 | 1.18 | 0.00 | 86 | 1007.3 |
| 20260507032017 | 51 | 168 | 2.6 | 7.0 | 0.00 | 1.18 | 0.00 | 86 | 1007.2 |
| 20260507031116 | 51 | 167 | 4.3 | 7.8 | 0.00 | 1.18 | 0.00 | 87 | 1007.3 |
| 20260507030003 | 51 | 176 | 4.3 | 10.4 | 0.00 | 1.18 | 0.00 | 86 | 1007.1 |
| 20260507025403 | 51 | 168 | 4.3 | 8.7 | 0.00 | 1.18 | 0.00 | 87 | 1007.2 |
| 20260507024503 | 51 | 163 | 4.3 | 8.7 | 0.00 | 1.18 | 0.00 | 86 | 1007.1 |
| 20260507023603 | 51 | 183 | 5.2 | 10.4 | 0.00 | 1.18 | 0.00 | 86 | 1007.1 |
| 20260507022703 | 51 | 176 | 5.2 | 12.2 | 0.00 | 1.18 | 0.00 | 86 | 1007.2 |
| 20260507021803 | 52 | 174 | 5.2 | 10.4 | 0.00 | 1.20 | 0.00 | 86 | 1007.1 |
| 20260507020903 | 52 | 193 | 5.2 | 11.3 | 0.00 | 1.20 | 0.00 | 87 | 1007.1 |
| 20260507020217 | 52 | 213 | 4.3 | 11.3 | 0.00 | 1.20 | 0.00 | 87 | 1007.1 |
| 20260507015403 | 52 | 194 | 4.3 | 10.4 | 0.00 | 1.20 | 0.00 | 87 | 1007.1 |
| 20260507014503 | 52 | 191 | 4.3 | 14.8 | 0.00 | 1.20 | 0.00 | 87 | 1007.1 |
| 20260507013603 | 52 | 179 | 5.2 | 10.4 | 0.00 | 1.20 | 0.00 | 87 | 1007.1 |
| 20260507012703 | 52 | 183 | 5.2 | 11.3 | 0.00 | 1.20 | 0.00 | 87 | 1007.1 |
| 20260507011803 | 52 | 184 | 7.0 | 14.8 | 0.00 | 1.20 | 0.00 | 87 | 1007.1 |
| 20260507010903 | 52 | 173 | 7.0 | 13.9 | 0.00 | 1.22 | 0.00 | 87 | 1007.0 |
| 20260507010003 | 52 | 182 | 6.1 | 13.9 | 0.00 | 1.24 | 0.00 | 87 | 1006.8 |
| 20260507005403 | 52 | 187 | 7.0 | 13.0 | 0.00 | 1.28 | 0.00 | 87 | 1007.0 |
| 20260507004503 | 52 | 189 | 7.0 | 15.6 | 0.00 | 1.39 | 0.00 | 87 | 1006.9 |
| 20260507003603 | 52 | 184 | 7.0 | 15.6 | 0.00 | 1.49 | 0.00 | 87 | 1007.0 |
| 20260507002917 | 52 | 182 | 7.0 | 13.0 | 0.00 | 1.51 | 0.00 | 87 | 1007.2 |
| 20260507002018 | 52 | 167 | 7.0 | 13.9 | 0.00 | 1.51 | 0.00 | 87 | 1007.1 |
| 20260507000903 | 52 | 187 | 7.0 | 15.6 | 0.00 | 1.53 | 0.00 | 87 | 1007.2 |
| 20260507000004 | 52 | 176 | 7.0 | 12.2 | 0.00 | 1.53 | 0.00 | 87 | 1007.2 |
| 20260506235404 | 52 | 182 | 7.8 | 15.6 | 0.00 | 1.55 | 0.00 | 88 | 1007.3 |
| 20260506234503 | 52 | 178 | 7.8 | 16.5 | 0.00 | 1.65 | 0.00 | 88 | 1007.2 |
| 20260506233603 | 52 | 176 | 8.7 | 14.8 | 0.00 | 1.69 | 0.00 | 88 | 1007.3 |
| 20260506232703 | 52 | 178 | 7.8 | 15.6 | 0.00 | 1.71 | 0.00 | 89 | 1007.4 |
| 20260506231803 | 52 | 188 | 6.1 | 13.9 | 0.00 | 1.71 | 0.00 | 89 | 1007.4 |
| 20260506230903 | 52 | 191 | 9.6 | 17.4 | 0.00 | 1.71 | 0.00 | 89 | 1007.4 |
| 20260506230003 | 52 | 186 | 8.7 | 16.5 | 0.00 | 1.71 | 0.00 | 89 | 1007.3 |
| 20260506225403 | 52 | 175 | 8.7 | 16.5 | 0.00 | 1.71 | 0.00 | 89 | 1007.3 |
| 20260506224503 | 52 | 198 | 7.8 | 16.5 | 0.00 | 1.71 | 0.00 | 89 | 1007.3 |
| 20260506223603 | 52 | 183 | 9.6 | 16.5 | 0.00 | 1.71 | 0.00 | 89 | 1007.4 |
| 20260506222703 | 52 | 199 | 9.6 | 16.5 | 0.00 | 1.71 | 0.00 | 89 | 1007.1 |
| 20260506221803 | 52 | 192 | 8.7 | 17.4 | 0.00 | 1.71 | 0.00 | 90 | 1007.3 |
| 20260506220903 | 52 | 189 | 9.6 | 15.6 | 0.00 | 1.71 | 0.00 | 90 | 1007.2 |
| 20260506220003 | 52 | 204 | 8.7 | 15.6 | 0.00 | 1.71 | 0.00 | 90 | 1007.3 |
| 20260506215403 | 52 | 212 | 8.7 | 15.6 | 0.00 | 1.71 | 1.71 | 90 | 1007.2 |
| 20260506214503 | 51 | 212 | 7.0 | 13.0 | 0.00 | 1.71 | 1.71 | 90 | 1007.3 |
| 20260506213816 | 51 | 208 | 7.0 | 12.2 | 0.00 | 1.71 | 1.71 | 90 | 1007.3 |
| 20260506212703 | 52 | 210 | 8.7 | 14.8 | 0.00 | 1.71 | 1.71 | 89 | 1007.2 |
| 20260506211803 | 52 | 195 | 8.7 | 18.2 | 0.00 | 1.71 | 1.71 | 89 | 1007.3 |
| 20260506210903 | 52 | 193 | 7.8 | 14.8 | 0.00 | 1.71 | 1.71 | 89 | 1007.3 |
| 20260506210003 | 52 | 195 | 7.8 | 14.8 | 0.00 | 1.71 | 1.71 | 89 | 1007.3 |
| 20260506205403 | 52 | 188 | 7.0 | 14.8 | 0.00 | 1.71 | 1.71 | 88 | 1007.5 |
| 20260506204503 | 52 | 183 | 7.0 | 16.5 | 0.00 | 1.71 | 1.71 | 88 | 1007.1 |
| 20260506203603 | 51 | 197 | 6.1 | 11.3 | 0.00 | 1.71 | 1.71 | 88 | 1007.2 |
| 20260506202703 | 52 | 189 | 7.8 | 14.8 | 0.00 | 1.71 | 1.71 | 88 | 1007.4 |
| 20260506201803 | 52 | 192 | 7.8 | 13.0 | 0.00 | 1.71 | 1.71 | 88 | 1007.1 |
| 20260506200903 | 52 | 193 | 7.8 | 14.8 | 0.00 | 1.71 | 1.71 | 88 | 1007.1 |
| 20260506200003 | 52 | 179 | 7.8 | 15.6 | 0.00 | 1.71 | 1.71 | 88 | 1007.1 |
| 20260506195403 | 52 | 168 | 7.8 | 14.8 | 0.00 | 1.71 | 1.71 | 88 | 1007.0 |
| 20260506194503 | 52 | 173 | 7.8 | 14.8 | 0.00 | 1.71 | 1.71 | 88 | 1006.8 |
| 20260506193603 | 52 | 194 | 8.7 | 17.4 | 0.02 | 1.71 | 1.71 | 89 | 1006.7 |
| 20260506192917 | 52 | 184 | 8.7 | 17.4 | 0.02 | 1.71 | 1.71 | 89 | 1006.7 |
| 20260506191804 | 52 | 177 | 8.7 | 18.2 | 0.10 | 1.71 | 1.71 | 90 | 1006.3 |
| 20260506190903 | 52 | 172 | 7.0 | 14.8 | 0.12 | 1.71 | 1.71 | 90 | 1006.3 |
| 20260506190004 | 52 | 179 | 8.7 | 19.1 | 0.12 | 1.71 | 1.71 | 90 | 1006.0 |
| 20260506185403 | 52 | 187 | 7.8 | 19.1 | 0.12 | 1.71 | 1.71 | 90 | 1005.9 |
| 20260506184503 | 52 | 207 | 3.5 | 10.4 | 0.12 | 1.71 | 1.71 | 90 | 1005.7 |
| 20260506183603 | 52 | 247 | 2.6 | 10.4 | 0.10 | 1.71 | 1.69 | 90 | 1005.7 |
| 20260506182703 | 52 | 243 | 4.3 | 10.4 | 0.10 | 1.71 | 1.69 | 90 | 1006.1 |
| 20260506182018 | 52 | 227 | 4.3 | 10.4 | 0.04 | 1.67 | 1.63 | 90 | 1005.9 |
| 20260506180903 | 52 | 208 | 7.8 | 13.0 | 0.10 | 1.63 | 1.59 | 90 | 1006.1 |
| 20260506180218 | 52 | 213 | 7.0 | 13.9 | 0.12 | 1.63 | 1.59 | 90 | 1006.0 |
| 20260506175618 | 52 | 221 | 7.8 | 14.8 | 0.12 | 1.63 | 1.59 | 90 | 1006.2 |
| 20260506174503 | 52 | 211 | 7.8 | 16.5 | 0.12 | 1.63 | 1.59 | 90 | 1005.9 |
| 20260506173603 | 52 | 221 | 10.4 | 20.0 | 0.12 | 1.63 | 1.59 | 89 | 1006.1 |
| 20260506172703 | 53 | 219 | 8.7 | 16.5 | 0.12 | 1.63 | 1.59 | 89 | 1006.1 |
| 20260506171803 | 53 | 202 | 7.0 | 13.0 | 0.08 | 1.61 | 1.57 | 89 | 1005.9 |
| 20260506170903 | 53 | 174 | 7.0 | 13.9 | 0.02 | 1.55 | 1.49 | 88 | 1005.5 |
| 20260506170218 | 54 | 174 | 7.0 | 14.8 | 0.00 | 1.53 | 1.47 | 88 | 1005.5 |
| 20260506165403 | 53 | 160 | 6.1 | 13.0 | 0.00 | 1.55 | 1.47 | 88 | 1005.5 |
| 20260506164503 | 53 | 166 | 6.1 | 11.3 | 0.00 | 1.59 | 1.47 | 89 | 1005.4 |
| 20260506163603 | 53 | 165 | 5.2 | 14.8 | 0.00 | 1.61 | 1.47 | 89 | 1005.6 |
| 20260506162703 | 53 | 180 | 6.1 | 13.9 | 0.00 | 1.63 | 1.47 | 89 | 1005.8 |
| 20260506161803 | 53 | 182 | 7.0 | 13.0 | 0.00 | 1.67 | 1.47 | 89 | 1005.8 |
| 20260506160903 | 53 | 196 | 4.3 | 9.6 | 0.00 | 1.69 | 1.47 | 89 | 1005.8 |
| 20260506160003 | 53 | 186 | 5.2 | 12.2 | 0.00 | 1.73 | 1.47 | 89 | 1005.8 |
| 20260506155617 | 53 | 182 | 6.1 | 12.2 | 0.00 | 1.76 | 1.47 | 89 | 1005.8 |
| 20260506154503 | 53 | 187 | 7.8 | 16.5 | 0.02 | 1.78 | 1.47 | 89 | 1005.9 |
| 20260506153603 | 53 | 185 | 7.0 | 18.2 | 0.02 | 1.80 | 1.47 | 90 | 1005.9 |
| 20260506152703 | 53 | 177 | 7.0 | 16.5 | 0.02 | 1.80 | 1.47 | 90 | 1006.2 |
| 20260506151803 | 53 | 181 | 8.7 | 13.0 | 0.04 | 1.81 | 1.47 | 90 | 1006.2 |
| 20260506150903 | 53 | 199 | 7.8 | 16.5 | 0.06 | 1.81 | 1.47 | 90 | 1006.2 |
| 20260506150003 | 53 | 178 | 7.8 | 16.5 | 0.08 | 1.81 | 1.47 | 90 | 1006.4 |
| 20260506145403 | 53 | 192 | 7.8 | 18.2 | 0.08 | 1.81 | 1.47 | 90 | 1006.3 |
| 20260506144503 | 52 | 187 | 7.0 | 13.0 | 0.06 | 1.81 | 1.45 | 90 | 1006.6 |
| 20260506143603 | 52 | 211 | 7.0 | 13.0 | 0.06 | 1.81 | 1.45 | 90 | 1006.4 |
| 20260506142703 | 52 | 219 | 7.0 | 13.0 | 0.06 | 1.81 | 1.45 | 90 | 1006.6 |
| 20260506141804 | 52 | 195 | 6.1 | 11.3 | 0.04 | 1.80 | 1.43 | 90 | 1006.6 |
| 20260506140903 | 52 | 215 | 5.2 | 11.3 | 0.02 | 1.80 | 1.41 | 90 | 1006.7 |
| 20260506140003 | 51 | 205 | 5.2 | 11.3 | 0.00 | 1.78 | 1.39 | 90 | 1006.8 |
| 20260506135403 | 51 | 193 | 5.2 | 11.3 | 0.00 | 1.78 | 1.39 | 90 | 1006.7 |
| 20260506134504 | 51 | 177 | 7.0 | 13.9 | 0.02 | 1.78 | 1.39 | 90 | 1006.9 |
| 20260506133603 | 51 | 178 | 7.8 | 18.2 | 0.04 | 1.78 | 1.39 | 90 | 1007.0 |
| 20260506132703 | 51 | 183 | 7.8 | 16.5 | 0.06 | 1.78 | 1.39 | 91 | 1007.1 |
| 20260506132018 | 51 | 198 | 7.8 | 14.8 | 0.06 | 1.78 | 1.39 | 91 | 1007.2 |
| 20260506130903 | 51 | 217 | 9.6 | 18.2 | 0.06 | 1.80 | 1.39 | 90 | 1007.2 |
| 20260506130005 | 51 | 193 | 7.0 | 14.8 | 0.08 | 1.80 | 1.39 | 91 | 1007.4 |
| 20260506125403 | 51 | 190 | 7.0 | 14.8 | 0.10 | 1.80 | 1.39 | 91 | 1007.0 |
| 20260506124717 | 51 | 198 | 7.8 | 12.2 | 0.08 | 1.78 | 1.37 | 91 | 1007.0 |
| 20260506123603 | 52 | 202 | 5.2 | 11.3 | 0.06 | 1.75 | 1.35 | 90 | 1007.0 |
| 20260506122703 | 51 | 222 | 5.2 | 11.3 | 0.06 | 1.73 | 1.33 | 90 | 1006.7 |
| 20260506121803 | 51 | 215 | 7.8 | 14.8 | 0.06 | 1.76 | 1.33 | 90 | 1006.8 |
| 20260506120903 | 51 | 207 | 7.8 | 15.6 | 0.06 | 1.76 | 1.33 | 91 | 1007.0 |
| 20260506120003 | 51 | 204 | 8.7 | 16.5 | 0.04 | 1.73 | 1.31 | 91 | 1007.0 |
| 20260506115403 | 51 | 188 | 7.8 | 16.5 | 0.02 | 1.71 | 1.28 | 90 | 1007.0 |
| 20260506114717 | 51 | 202 | 7.0 | 13.9 | 0.02 | 1.73 | 1.28 | 90 | 1007.1 |
| 20260506113603 | 51 | 196 | 10.4 | 20.0 | 0.02 | 1.73 | 1.28 | 90 | 1007.0 |
| 20260506112918 | 51 | 185 | 10.4 | 20.0 | 0.00 | 1.71 | 1.26 | 90 | 1007.1 |
| 20260506111803 | 51 | 156 | 7.0 | 13.0 | 0.02 | 1.71 | 1.26 | 91 | 1006.9 |
| 20260506110903 | 51 | 166 | 7.0 | 14.8 | 0.02 | 1.71 | 1.26 | 90 | 1006.8 |
| 20260506110003 | 52 | 163 | 6.1 | 13.9 | 0.06 | 1.71 | 1.26 | 90 | 1007.2 |
| 20260506105403 | 52 | 160 | 8.7 | 15.6 | 0.08 | 1.71 | 1.26 | 90 | 1007.1 |
| 20260506104503 | 52 | 165 | 7.8 | 14.8 | 0.08 | 1.71 | 1.26 | 90 | 1007.1 |
| 20260506103603 | 52 | 163 | 7.0 | 13.9 | 0.08 | 1.73 | 1.26 | 90 | 1007.2 |
| 20260506102917 | 52 | 168 | 6.1 | 13.0 | 0.08 | 1.73 | 1.26 | 90 | 1007.2 |
| 20260506101804 | 52 | 157 | 4.3 | 10.4 | 0.06 | 1.71 | 1.24 | 90 | 1007.4 |
| 20260506101122 | 52 | 168 | 5.2 | 11.3 | 0.06 | 1.73 | 1.24 | 90 | 1007.4 |
| 20260506100003 | 52 | 166 | 7.0 | 12.2 | 0.02 | 1.69 | 1.20 | 90 | 1007.5 |
| 20260506095403 | 52 | 158 | 7.0 | 13.0 | 0.00 | 1.67 | 1.18 | 90 | 1007.4 |
| 20260506094503 | 52 | 145 | 6.1 | 11.3 | 0.02 | 1.67 | 1.18 | 90 | 1007.4 |
| 20260506093603 | 52 | 150 | 6.1 | 10.4 | 0.04 | 1.67 | 1.18 | 90 | 1007.5 |
| 20260506092703 | 52 | 159 | 5.2 | 10.4 | 0.06 | 1.67 | 1.18 | 90 | 1007.5 |
| 20260506091803 | 52 | 156 | 5.2 | 11.3 | 0.08 | 1.67 | 1.18 | 90 | 1007.5 |
| 20260506090903 | 52 | 138 | 4.3 | 8.7 | 0.10 | 1.67 | 1.18 | 90 | 1007.5 |
| 20260506090004 | 51 | 154 | 6.1 | 11.3 | 0.14 | 1.67 | 1.18 | 91 | 1007.5 |
| 20260506085403 | 51 | 157 | 5.2 | 11.3 | 0.16 | 1.67 | 1.18 | 91 | 1007.5 |
| 20260506084503 | 52 | 159 | 6.1 | 10.4 | 0.14 | 1.65 | 1.16 | 91 | 1007.6 |
| 20260506083603 | 51 | 149 | 6.1 | 11.3 | 0.14 | 1.63 | 1.16 | 91 | 1007.5 |
| 20260506082703 | 51 | 154 | 7.0 | 13.0 | 0.12 | 1.61 | 1.12 | 91 | 1007.4 |
| 20260506081803 | 51 | 171 | 7.0 | 13.9 | 0.12 | 1.59 | 1.10 | 91 | 1007.4 |
| 20260506081117 | 51 | 175 | 5.2 | 11.3 | 0.10 | 1.57 | 1.08 | 91 | 1007.3 |
| 20260506072703 | 51 | 191 | 0.9 | 3.5 | 0.31 | 1.49 | 1.00 | 91 | 1007.4 |
| 20260506071803 | 51 | 243 | 0.0 | 1.7 | 0.35 | 1.47 | 0.98 | 91 | 1007.5 |
| 20260506071117 | 51 | 261 | 0.9 | 3.5 | 0.41 | 1.47 | 0.98 | 91 | 1007.5 |